Regional Weather Roundup
Issued by NWS

Home | Current Version | Previous Version | Text Only | Print | Product List | Glossary Off
Versions: 1 2 3 4 5 6 7 8 9 10 11 12 13 14 15 16 17 18 19 20 21 22 23 24 25 26 27 28 29 30 31 32 33 34 35 36 37 38 39 40 41 42 43 44 45 46 47 48 49 50

000
ASUS43 KTOP 180608
RWRKS

WEATHER ROUNDUP FOR KANSAS
NATIONAL WEATHER SERVICE GOODLAND KS
100 AM CDT FRI APR 18 2014

NOTE:  "FAIR" INDICATES FEW OR NO CLOUDS BELOW 12,000 FEET WITH NO
SIGNIFICANT WEATHER AND/OR OBSTRUCTIONS TO VISIBILITY.

KSZ001>006-013>018-027>032-041>047-180700-
NORTHWEST KANSAS

CITY           SKY/WX    TMP DP  RH WIND       PRES   REMARKS
GOODLAND       CLEAR     40  37  89 S21       30.14S WCI  30
6HR MIN TEMP:  40; 6HR MAX TEMP:  53;

HAYS           FAIR      39  30  70 S7        30.22S
HILL CITY      FAIR      42  37  82 S7        30.21S
6HR MIN TEMP:  42; 6HR MAX TEMP:  58;

RUSSELL        FAIR      38  30  73 S10       30.22F WCI  31
6HR MIN TEMP:  38; 6HR MAX TEMP:  56;

$$

KSZ061>065-074>080-084>089-180700-
SOUTHWEST KANSAS

CITY           SKY/WX    TMP DP  RH WIND       PRES   REMARKS
DODGE CITY     CLOUDY    43  38  82 S9        30.24S
6HR MIN TEMP:  40; 6HR MAX TEMP:  51;

ELKHART          N/A     35  28  75 S9          N/A
GARDEN CITY    FAIR      40  38  93 SE10      30.21F FOG     WCI  33
6HR MIN TEMP:  40; 6HR MAX TEMP:  50;

GREAT BEND     FAIR      39  30  70 S9        30.24F
LIBERAL        FAIR      39  34  81 S6        30.24S
PRATT          FAIR      36  36 100 S5        30.27S FOG
$$

KSZ066>073-081>083-090>101-180700-
SOUTHEAST KANSAS

CITY           SKY/WX    TMP DP  RH WIND       PRES   REMARKS
CHANUTE        FAIR      38  35  89 NE5       30.29S FOG
6HR MIN TEMP:  34; 6HR MAX TEMP:  47;

COFFEYVILLE    FAIR      38  35  89 N5        30.28F
6HR MIN TEMP:  38; 6HR MAX TEMP:  48; 6HR PCP: TRACE;

HUTCHINSON     FAIR      36  32  85 CALM      30.27S
6HR MIN TEMP:  35; 6HR MAX TEMP:  54;

MEDICINE LODGE   N/A     38  36  92 CALM      30.27S
NEWTON         FAIR      37  28  70 S5        30.30R
PARSONS        FAIR      36  33  89 CALM      30.29S FOG
6HR MIN TEMP:  35; 6HR MAX TEMP:  48; 6HR PCP: TRACE;

WICHITA INTL   FAIR      37  33  85 CALM      30.28S FOG
6HR MIN TEMP:  35; 6HR MAX TEMP:  51;

WICHITA JABRA  FAIR      39  34  82 CALM      30.27S HAZE
6HR MIN TEMP:  39; 6HR MAX TEMP:  49;

WICHITA MCCONL FAIR      41  39  93 CALM      30.28S
WINFIELD       FAIR      34  32  92 CALM      30.29S FOG
6HR MIN TEMP:  33; 6HR MAX TEMP:  49;

$$

KSZ007>012-019>026-033>040-048>060-102>105-180700-
NORTHEAST KANSAS

CITY           SKY/WX    TMP DP  RH WIND       PRES   REMARKS
CONCORDIA      FAIR      42  31  64 S12       30.25S
6HR MIN TEMP:  40; 6HR MAX TEMP:  55;

EMPORIA        FAIR      36  32  85 CALM      30.28R FOG
6HR MIN TEMP:  35; 6HR MAX TEMP:  46;

LAWRENCE       FAIR      34  31  88 CALM      30.29S FOG
6HR MIN TEMP:  32; 6HR MAX TEMP:  51;

MANHATTAN      CLOUDY    35  31  85 CALM      30.29R FOG
6HR MIN TEMP:  34; 6HR MAX TEMP:  55;

OLATHE IND     FAIR      37  32  82 CALM      30.28S
6HR MIN TEMP:  36; 6HR MAX TEMP:  46;

OLATHE EXE     FAIR      38  33  82 CALM      30.27S
6HR MIN TEMP:  38; 6HR MAX TEMP:  46;

SALINA         FAIR      36  28  73 S8        30.27S
6HR MIN TEMP:  35; 6HR MAX TEMP:  57;

TOPEKA BILLARD FAIR      38  33  82 CALM      30.29S HAZE
6HR MIN TEMP:  38; 6HR MAX TEMP:  53;

TOPEKA FORBES  FAIR      37  32  82 CALM      30.28S
6HR MIN TEMP:  35; 6HR MAX TEMP:  51;

$$



USA.gov is the U.S. government's official web portal to all federal, state and local government web resources and services.